Powrót do katalogu

STARLINK-2684

AktywnyŁącznośćVLEO
NORAD 48471·PAYLOAD·🇺🇸 United States

Wystrzelony May 9, 2021 z Cape Canaveral Space Force Station

Loading…

Następne Przeloty (najbliższe 24 godziny)

TLE

ŚwieżeSource: CelesTrak SupGP

Epoka: Sep 15, 2026, 00:46 UTC

1 48471C 21040AV  26258.03243056 -.00031301  00000+0 -10067-2 0  2580
2 48471  53.1601  29.8927 0001167  74.9894 236.8245 15.31713964    16

Śledź STARLINK-2684 w czasie rzeczywistym z AllMySat

Download on the App Store